(70775) = 1999 VO38 = 2001 FT139

Discovered at Socorro on 1999-11-10 by LINEAR.

Orbit

Orbit type: Main Belt

Note: WebGL enabled browser required.

epoch2024-03-31.0
epoch JD2460400.5
perihelion date2024-03-10.07029
perihelion JD2460379.57029
argument of perihelion (°)329.25702
ascending node (°)70.86947
inclination (°)5.14012
eccentricity0.1195460
perihelion distance (AU)2.2489104
Tisserand w.r.t. Jupiter3.4
ΔV w.r.t. Earth (km/sec)9.5
semimajor axis (AU)2.5542622
mean anomaly (°)5.05323
mean daily motion (°/day)0.24143800
aphelion distance (AU)2.860
period (years)4.08
P-vector [x]0.76268142
P-vector [y]0.61013178
P-vector [z]0.21460721
Q-vector [x]-0.64121170
Q-vector [y]0.66985983
Q-vector [z]0.37434658
absolute magnitude15.32
phase slope0.15
uncertainty0
referenceMPEC 2024-E02
observations used1593
oppositions19
arc length (days)11231
first opposition used1993
last opposition used2024
residual rms (arc-secs)0.66
perturbers coarse indicatorM-v
perturbers precise indicator003Ek
first observation date used1993-04-19.0
last observation date used2024-01-18.0
computer nameMPCLINUX
JD of orbit computation2456909.098951
perihelion JD uncertainty (days)7.9088E-05
argument of perihelion uncertainty (°)4.9740E-05
ascending node uncertainty (°)4.6715E-05
inclination uncertainty (°)4.9285E-06
eccentricity uncertainty 6.4173E-08
perihelion distance uncertainty (AU)1.6943E-07
Minimum Orbit Intersection Distances (in AU)
for orbit epoch: 2460400.5, reference: E2024-E02
Mercury1.92418
Venus1.52548
Earth1.2592
Mars0.7585
Jupiter2.51839
Saturn6.63324
Uranus15.6964
Neptune27.5703

Observations

1619 total observations over interval: 1993 04 19.34088 – 2024 01 18.101278
These data are available for download (format description).

Date (UT) J2000 RA J2000 Dec Magn Location Ref
1993 04 19.34088 13 07 09.20 -00 33 42.6 19.2 V 691 – Steward Observatory, Kitt Peak-Spacewatch MPS 77869
1993 04 19.37371 13 07 07.46 -00 33 35.5 19.3 V 691 – Steward Observatory, Kitt Peak-Spacewatch MPS 77869
1993 04 19.40539 13 07 05.82 -00 33 29.2 20.3 V 691 – Steward Observatory, Kitt Peak-Spacewatch MPS 77869
1995 11 30.58705 05 03 45.85 +23 08 06.1   327 – Peking Observatory, Xinglong Station MPS 27642
1995 11 30.59740 05 03 45.15 +23 08 06.7 18.0 V 327 – Peking Observatory, Xinglong Station MPS 27642
1995 11 30.60774 05 03 44.41 +23 08 08.0   327 – Peking Observatory, Xinglong Station MPS 27642
1999 10 21.32781 04 32 37.03 +19 15 06.4 18.6   704 – Lincoln Laboratory ETS, New Mexico MPS 15529
1999 10 21.34302 04 32 36.72 +19 15 08.7 18.8   704 – Lincoln Laboratory ETS, New Mexico MPS 15529
1999 10 21.37348 04 32 36.06 +19 15 08.8 19.7   704 – Lincoln Laboratory ETS, New Mexico MPS 15529
1999 10 21.38873 04 32 35.77 +19 15 11.1 19.3   704 – Lincoln Laboratory ETS, New Mexico MPS 15529
1999 10 30.40903 04 28 35.29 +19 23 03.4 17.7 R 703 – Catalina Sky Survey MPS 8687
1999 10 30.42107 04 28 34.80 +19 23 04.1 17.8 R 703 – Catalina Sky Survey MPS 8687
1999 10 30.43313 04 28 34.52 +19 23 04.1 18.6 R 703 – Catalina Sky Survey MPS 8687
1999 10 30.44512 04 28 33.90 +19 23 05.1 18.5 R 703 – Catalina Sky Survey MPS 8687
1999 11 04.33192 04 25 18.81 +19 26 09.0 18.2   704 – Lincoln Laboratory ETS, New Mexico MPS 8687
1999 11 04.34804 04 25 18.12 +19 26 10.3 18.3   704 – Lincoln Laboratory ETS, New Mexico MPS 8687
1999 11 04.36420 04 25 17.35 +19 26 11.3 18.7   704 – Lincoln Laboratory ETS, New Mexico MPS 8687
1999 11 04.38028 04 25 16.60 +19 26 11.8 18.4   704 – Lincoln Laboratory ETS, New Mexico MPS 8687
1999 11 04.39636 04 25 15.85 +19 26 11.7 18.2   704 – Lincoln Laboratory ETS, New Mexico MPS 8687
1999 11 09.36454 04 21 16.10 +19 28 29.3 18.1   704 – Lincoln Laboratory ETS, New Mexico MPS 8687
1999 11 09.37891 04 21 15.29 +19 28 30.0 18.6   704 – Lincoln Laboratory ETS, New Mexico MPS 8687
1999 11 09.39328 04 21 14.50 +19 28 30.0 18.3   704 – Lincoln Laboratory ETS, New Mexico MPS 8687
1999 11 09.40818 04 21 13.71 +19 28 30.0 18.3   704 – Lincoln Laboratory ETS, New Mexico MPS 8687
1999 11 09.42253 04 21 12.92 +19 28 30.3 18.5   704 – Lincoln Laboratory ETS, New Mexico MPS 8687
1999 11 10.30242 04 20 26.96 +19 28 49.9 18.3   704 – Lincoln Laboratory ETS, New Mexico MPS 7478
1999 11 10.31510 04 20 26.26 +19 28 50.5 18.4 R 699 – Lowell Observatory-LONEOS MPS 12060
1999 11 10.31888 04 20 26.04 +19 28 50.3 18.2   704 – Lincoln Laboratory ETS, New Mexico MPS 7478
1999 11 10.33037 04 20 25.24 +19 28 50.2   699 – Lowell Observatory-LONEOS MPS 12060
1999 11 10.33523 04 20 25.10 +19 28 50.7 18.3   704 – Lincoln Laboratory ETS, New Mexico MPS 7478
1999 11 10.34565 04 20 24.45 +19 28 52.4   699 – Lowell Observatory-LONEOS MPS 12060
1999 11 10.35156 04 20 24.20 +19 28 51.3 18.3   704 – Lincoln Laboratory ETS, New Mexico MPS 7478
1999 11 10.36786 04 20 23.30 +19 28 52.1 18.6   704 – Lincoln Laboratory ETS, New Mexico MPS 7478
1999 11 12.35983 04 18 34.75 +19 29 29.6 18.2   704 – Lincoln Laboratory ETS, New Mexico MPS 7478
1999 11 12.37412 04 18 33.92 +19 29 30.2 18.4   704 – Lincoln Laboratory ETS, New Mexico MPS 7478
1999 11 12.38840 04 18 33.07 +19 29 30.4 18.6   704 – Lincoln Laboratory ETS, New Mexico MPS 7478
1999 11 12.40268 04 18 32.27 +19 29 30.6 18.4   704 – Lincoln Laboratory ETS, New Mexico MPS 7478
1999 11 12.41699 04 18 31.43 +19 29 31.3 18.5   704 – Lincoln Laboratory ETS, New Mexico MPS 7478
1999 11 17.27856 04 13 49.14 +19 30 35.6 18.0   704 – Lincoln Laboratory ETS, New Mexico MPS 8687
1999 11 17.29387 04 13 48.06 +19 30 34.6 18.5   704 – Lincoln Laboratory ETS, New Mexico MPS 8687
1999 11 17.30940 04 13 47.15 +19 30 34.8 18.1   704 – Lincoln Laboratory ETS, New Mexico MPS 8687
1999 11 17.32470 04 13 46.20 +19 30 35.7 18.2   704 – Lincoln Laboratory ETS, New Mexico MPS 8687
1999 11 17.34005 04 13 45.25 +19 30 35.3 18.2   704 – Lincoln Laboratory ETS, New Mexico MPS 8687
1999 11 19.17726 04 11 53.76 +19 30 51.4 18.4 R 699 – Lowell Observatory-LONEOS MPS 12060
1999 11 19.20780 04 11 51.88 +19 30 51.0   699 – Lowell Observatory-LONEOS MPS 12060
1999 11 19.23836 04 11 49.91 +19 30 51.9   699 – Lowell Observatory-LONEOS MPS 12060
1999 12 03.18231 03 57 21.08 +19 31 27.6 17.7 R 699 – Lowell Observatory-LONEOS MPS 7879
1999 12 03.21540 03 57 18.98 +19 31 28.3   699 – Lowell Observatory-LONEOS MPS 7879
1999 12 03.24852 03 57 16.93 +19 31 28.6   699 – Lowell Observatory-LONEOS MPS 7879
1999 12 04.36801 03 56 09.70 +19 31 32.1 17.9 R 703 – Catalina Sky Survey MPS 8687
1999 12 04.38028 03 56 08.95 +19 31 32.0 17.8 R 703 – Catalina Sky Survey MPS 8687
1999 12 04.39249 03 56 08.19 +19 31 31.7 17.8 R 703 – Catalina Sky Survey MPS 8687
1999 12 04.40468 03 56 07.46 +19 31 31.2 18.1 R 703 – Catalina Sky Survey MPS 8687
1999 12 07.22404 03 53 24.26 +19 31 48.6 18.2   704 – Lincoln Laboratory ETS, New Mexico MPS 7879
1999 12 07.23862 03 53 23.43 +19 31 48.2 19.6   704 – Lincoln Laboratory ETS, New Mexico MPS 7879
1999 12 07.25317 03 53 22.42 +19 31 47.9 19.0   704 – Lincoln Laboratory ETS, New Mexico MPS 7879
1999 12 07.26772 03 53 21.70 +19 31 49.1 18.5   704 – Lincoln Laboratory ETS, New Mexico MPS 7879
1999 12 07.28226 03 53 20.85 +19 31 48.9 18.1   704 – Lincoln Laboratory ETS, New Mexico MPS 7879
1999 12 08.26349 03 52 25.94 +19 31 57.2 18.4   704 – Lincoln Laboratory ETS, New Mexico MPS 7879
1999 12 08.27591 03 52 25.20 +19 31 56.9 18.9   704 – Lincoln Laboratory ETS, New Mexico MPS 7879
1999 12 08.28834 03 52 24.49 +19 31 58.4 18.8   704 – Lincoln Laboratory ETS, New Mexico MPS 7879
1999 12 08.30069 03 52 23.77 +19 31 57.7 18.5   704 – Lincoln Laboratory ETS, New Mexico MPS 7879
1999 12 08.31307 03 52 23.05 +19 31 57.7 18.8   704 – Lincoln Laboratory ETS, New Mexico MPS 7880
1999 12 13.28430 03 48 03.63 +19 33 13.8 18.5 V 691 – Steward Observatory, Kitt Peak-Spacewatch MPS 8687
1999 12 13.31106 03 48 02.26 +19 33 14.5 18.4 V 691 – Steward Observatory, Kitt Peak-Spacewatch MPS 8687
1999 12 13.34449 03 48 00.57 +19 33 15.0 18.4 V 691 – Steward Observatory, Kitt Peak-Spacewatch MPS 8687
2001 03 03.30943 12 41 15.42 +03 31 52.0 18.7   704 – Lincoln Laboratory ETS, New Mexico MPS 28513
2001 03 03.32254 12 41 14.82 +03 31 55.7 19.0   704 – Lincoln Laboratory ETS, New Mexico MPS 28513
2001 03 03.33567 12 41 14.23 +03 32 01.1 19.0   704 – Lincoln Laboratory ETS, New Mexico MPS 28513
2001 03 03.34880 12 41 13.71 +03 32 04.8 19.2   704 – Lincoln Laboratory ETS, New Mexico MPS 28513
2001 03 03.36199 12 41 13.19 +03 32 09.2 19.3   704 – Lincoln Laboratory ETS, New Mexico MPS 28513
2001 03 21.42522 12 26 50.13 +05 09 59.1 19.7   608 – Haleakala-AMOS MPS 28513
2001 03 21.43580 12 26 49.55 +05 10 02.6 19.7   608 – Haleakala-AMOS MPS 28513
2001 03 21.44666 12 26 48.96 +05 10 06.0 19.9   608 – Haleakala-AMOS MPS 28513
2001 03 24.30454 12 24 15.99 +05 24 58.2 19.4 V 691 – Steward Observatory, Kitt Peak-Spacewatch MPS 28513
2001 03 24.31062 12 24 15.65 +05 25 00.0 19.4 V 691 – Steward Observatory, Kitt Peak-Spacewatch MPS 28513
2001 03 24.31652 12 24 15.32 +05 25 01.8 19.4 V 691 – Steward Observatory, Kitt Peak-Spacewatch MPS 28513
2001 03 26.30011 12 22 28.63 +05 34 59.8 19.1   704 – Lincoln Laboratory ETS, New Mexico MPS 28513
2001 03 26.31257 12 22 27.93 +05 35 02.8 19.5   704 – Lincoln Laboratory ETS, New Mexico MPS 28513
2001 03 26.32506 12 22 27.09 +05 35 07.8 19.5   704 – Lincoln Laboratory ETS, New Mexico MPS 28513
2001 03 26.33751 12 22 26.55 +05 35 10.7 19.2   704 – Lincoln Laboratory ETS, New Mexico MPS 28513
2001 03 26.34998 12 22 25.89 +05 35 14.3 19.2   704 – Lincoln Laboratory ETS, New Mexico MPS 28513
2001 04 13.18184 12 07 28.13 +06 44 51.0 19.7 V 691 – Steward Observatory, Kitt Peak-Spacewatch MPS 29469
2001 04 13.21310 12 07 26.71 +06 44 56.2 19.8 V 691 – Steward Observatory, Kitt Peak-Spacewatch MPS 29469
2001 04 13.24522 12 07 25.23 +06 45 01.3 19.8 V 691 – Steward Observatory, Kitt Peak-Spacewatch MPS 29469
2003 08 23.41352 03 20 32.36 +13 48 21.7 19.1   704 – Lincoln Laboratory ETS, New Mexico MPS 83225
